Location: Milton Keynes
(52.0316°N, 0.7531°W)
Time: 15:36:02
(UTC+00:00)

Envisat - Pass Details

Date: 01 December 2022
Orbit: 763 x 765 km, 98.2° (Epoch: 06 February)

Event Time Altitude Azimuth Distance (km) Brightness Sun altitude
Rises 03:53:16 0° 18° (NNE) 3,247 6.6 -35.1°
Reaches altitude 10° 03:55:41 10° 25° (NNE) 2,316 5.8 -34.8°
Enters shadow 03:58:46 32° 50° (NE) 1,298 4.5 -34.3°
